SL-16 DEB, 22327

Orbit data source: Space-Track

SL-16 DEB, 22327 is space debris in LEO originally from a launch on Fri, 25 Dec 1992 UTC launched from the Tyuratam Missile And Space Complex (TTMTR). Debris objects in space refer to the collection of defunct objects orbiting the Earth. Examples of debris include non-operational satellites, rocket bodies, and fragments generated from explosions, collisions, or faulty payload assembly.

Loading next visibility...
Identifier
22327, 1992-093Q
Orbit
LEO
Country
Flag of CISCIS
Related business
Manufacturer
Unknown
Mission
Spacecraft
Bus & Motor
Unknown
Mass
Unknown
Launch date (UTC)
1992-12-25 (33 years ago)
Launch vehicle
Unknown
Launch site
Tyuratam Missile And Space Complex (TTMTR)
Object type
Payload
Rocket body
Debris
Shape & HBR
Unknown shape, 0.6 m
Radar Cross Section
Medium (>0.1 m² and <1 m²)

Expand to show TLE details & history
Last TLE update: 5 hours ago

TLE from 5 hours ago
0 SL-16 DEB
1 22327U 92093Q   26037.19631031  .00012162  00000-0  95954-3 0  9998
2 22327  71.1143 302.2060 0058483 190.4747 324.0171 14.99497322743684
Epoch: 2026-02-06T04:42Z
TLE epoch observation values (Epoch: 2026-02-06T04:42:41.210Z)
Latitude
24.45303°
Longitude
-93.70333°
Altitude
538.178 km
Speed
7.614 km/s
True Right ascension
07h 33m 13s
True Declination
24° 19' 11"
Sunlit
Object was in full shadow at epoch
Visualization orbit readout
Latitude
Unknown
Longitude
Unknown
Altitude
Unknown
Speed
Unknown
Apparent Right ascension
Unknown
Apparent Declination
Unknown
Sunlit
N/A
Visualization observer readout
Local Sidereal Time
12:07:58
Azimuth
Unknown
Elevation
Unknown
Doppler factor
Unknown
Orbital elements
Apogee altitude
606.892 km
Perigee altitude
525.666 km
Semi-major axis
6,944.416 km
Eccentricity
0.00585
Inclination
71.1143°
RAAN
302.206°
Arg. of periapsis
190.4747°
True anomaly
323.62101°
Mean anomaly
324.0171°
Eccentric anomaly
323.81929°
Mean motion
3.7505 °/min
Orbital period
95.99 mins
BSTAR
0.00095954
Loading maneuver chart data...
Computing Atmospheric mass density...
Loading historical data...
Loading historical data...
Loading historical data...
Loading historical data...
Loading historical data...
Loading historical data...
Loading historical data...

Documentation

Showing up to 5 results
|